Location: Unspecified
(43.4680°N, 87.1740°E)
Time: 02:45:06
(UTC+00:00)

NOSS 3-1 (A) - Visible Passes

Search period start: 26 July 2021 00:00
Search period end: 05 August 2021 00:00
Orbit: 729 x 1483 km, 63.4° (Epoch: 23 July)

Date Brightness Start Highest point End Pass type
(mag) Time Alt. Az. Time Alt. Az. Time Alt. Az.
26 Jul 5.8 15:48:57 10° NNW 15:54:15 22° NNE 16:00:11 10° ENE visible
26 Jul 4.4 17:39:18 10° NNW 17:46:42 60° NE 17:51:15 29° ESE visible
26 Jul 4.6 19:30:29 10° NW 19:37:40 40° WSW 19:38:37 38° SW visible
27 Jul 6.0 15:04:13 10° NNW 15:08:44 18° NNE 15:13:42 10° ENE visible
27 Jul 4.9 16:54:40 10° NNW 17:01:39 44° NE 17:07:08 20° ESE visible
27 Jul 4.2 18:45:26 10° NW 18:52:59 58° WSW 18:54:31 51° SSW visible
27 Jul 5.9 20:40:09 10° W 20:41:54 12° W 20:41:54 12° W visible
28 Jul 6.1 14:19:19 10° NNW 14:23:07 15° NNE 14:27:14 10° NE visible
28 Jul 5.3 16:10:03 10° NNW 16:16:29 33° NE 16:23:08 12° E visible
28 Jul 4.0 18:00:33 10° NW 18:08:14 82° SW 18:10:31 54° SSE visible
28 Jul 5.5 19:53:04 10° WNW 19:57:54 20° WSW 19:57:54 20° WSW visible
29 Jul 5.6 15:25:25 10° NNW 15:31:11 25° NNE 15:37:41 10° E visible
29 Jul 4.2 17:15:48 10° NW 17:23:21 73° NE 17:26:37 42° SE visible
29 Jul 5.0 19:07:21 10° NW 19:14:01 31° WSW 19:14:01 31° WSW visible
30 Jul 5.8 14:40:45 10° NNW 14:45:44 20° NNE 14:51:17 10° ENE visible
30 Jul 4.6 16:31:07 10° NNW 16:38:23 53° NE 16:42:48 28° ESE visible
30 Jul 4.5 18:22:07 10° NW 18:29:29 46° WSW 18:30:12 45° SW visible
31 Jul 5.0 15:46:29 10° NNW 15:53:18 39° NE 15:59:02 18° E visible
31 Jul 4.1 17:37:09 10° NW 17:44:46 67° WSW 17:46:27 56° S visible
31 Jul 5.8 19:30:40 10° WNW 19:33:52 15° W 19:33:52 15° W visible
01 Aug 5.3 15:01:52 10° NNW 15:08:04 29° NE 15:15:06 10° E visible
01 Aug 4.0 16:52:19 10° NW 16:59:58 88° NE 17:02:46 48° SE visible
01 Aug 5.4 18:44:22 10° WNW 18:50:10 24° WSW 18:50:10 24° WSW visible
02 Aug 5.6 14:17:13 10° NNW 14:22:41 23° NNE 14:28:50 10° ENE visible
02 Aug 4.3 16:07:36 10° NNW 16:15:04 64° NE 16:19:08 33° ESE visible
02 Aug 4.9 17:58:53 10° NW 18:05:56 36° WSW 18:06:33 36° WSW visible
03 Aug 4.7 15:22:56 10° NNW 15:30:02 47° NE 15:35:33 21° ESE visible
03 Aug 4.4 17:13:47 10° NW 17:21:17 54° WSW 17:22:59 47° SSW visible
03 Aug 6.1 19:09:53 10° W 19:10:24 10° W 19:10:24 10° W visible
04 Aug 5.0 14:38:19 10° NNW 14:44:53 35° NE 14:52:02 11° E visible
04 Aug 4.1 16:28:53 10° NW 16:36:32 77° WSW 16:39:28 46° SSE visible
04 Aug 5.7 18:21:40 10° WNW 18:26:47 18° WSW 18:26:53 18° WSW visible
